{"data":{"norad_id":63800,"intl_designator":"2025-091AB","name":"STARLINK-33900","alt_names":[],"object_type":"PAYLOAD","status":"ACTIVE","operator":null,"country":"US","launch_date":"2025-05-02","launch_site_code":"AFETR","launch_vehicle":null,"mission":null,"orbit_class":"UNKNOWN","rcs_meters":null,"size_class":null,"mass_kg":null,"dimensions":null,"purposes":["comms"],"wikipedia_slug":null,"has_3d_model":false,"image_url":null,"decayed_at":null,"tle_current":{"epoch":"2026-05-24T22:20:20.776128Z","epoch_age_seconds":81378,"freshness":"FRESH","line1":"1 63800U 25091AB  26144.93079602  .00019715  00000+0  72340-3 0  9998","line2":"2 63800  43.0039 341.8353 0001899 260.4383  99.6254 15.27608877 60673","mean_motion":15.27608877,"eccentricity":0.0001899,"inclination_deg":43.0039,"raan_deg":341.8353,"arg_perigee_deg":260.4383,"mean_anomaly_deg":99.6254,"bstar":0.0007234,"rev_number":6067,"period_min":94.264966751696,"perigee_km":481.65970645573,"apogee_km":484.26555209493,"semimajor_km":6861.0996292753,"source":"CELESTRAK","updated_at":"2026-05-25T13:38:20.138315Z"}}}